Time,TemperatureF,DewpointF,PressureIn,WindDirection,WindDirectionDegrees,WindSpeedMPH,WindSpeedGustMPH,Humidity,HourlyPrecipIn,Conditions,Clouds,dailyrainin,SoftwareType,DateUTC
2013-01-13 00:08:00,38.4,38.0,30.10,West,264,0.0,0.0,100,0.00,,,0.00,weatherlink.com 1.10,2013-01-13 05:08:00,
2013-01-13 00:23:00,38.1,38.0,30.10,West,264,0.0,0.0,99,0.00,,,0.00,weatherlink.com 1.10,2013-01-13 05:23:00,
2013-01-13 00:38:00,37.9,38.0,30.10,West,264,0.0,0.0,99,0.00,,,0.00,weatherlink.com 1.10,2013-01-13 05:38:00,
2013-01-13 00:53:00,37.7,38.0,30.10,West,264,0.0,0.0,99,0.00,,,0.00,weatherlink.com 1.10,2013-01-13 05:53:00,
2013-01-13 01:08:00,37.7,38.0,30.11,West,264,0.0,0.0,100,0.00,,,0.00,weatherlink.com 1.10,2013-01-13 06:08:00,
2013-01-13 01:23:00,37.7,38.0,30.12,West,264,0.0,0.0,100,0.00,,,0.00,weatherlink.com 1.10,2013-01-13 06:23:00,
2013-01-13 01:38:00,38.1,38.0,30.12,West,264,0.0,0.0,100,0.00,,,0.00,weatherlink.com 1.10,2013-01-13 06:38:00,
2013-01-13 01:53:00,38.0,38.0,30.13,West,264,0.0,0.0,100,0.00,,,0.00,weatherlink.com 1.10,2013-01-13 06:53:00,
2013-01-13 02:08:00,37.7,38.0,30.12,West,264,0.0,0.0,100,0.00,,,0.00,weatherlink.com 1.10,2013-01-13 07:08:00,
2013-01-13 02:23:00,37.6,38.0,30.12,West,264,0.0,0.0,100,0.00,,,0.00,weatherlink.com 1.10,2013-01-13 07:23:00,
2013-01-13 02:38:00,37.6,38.0,30.11,West,264,0.0,0.0,100,0.00,,,0.00,weatherlink.com 1.10,2013-01-13 07:38:00,
2013-01-13 02:53:00,37.8,38.0,30.10,West,264,0.0,0.0,100,0.00,,,0.00,weatherlink.com 1.10,2013-01-13 07:53:00,
2013-01-13 03:08:00,37.9,38.0,30.09,West,264,0.0,0.0,100,0.00,,,0.00,weatherlink.com 1.10,2013-01-13 08:08:00,
2013-01-13 03:23:00,37.7,38.0,30.09,West,264,0.0,0.0,100,0.00,,,0.00,weatherlink.com 1.10,2013-01-13 08:23:00,
2013-01-13 03:38:00,37.7,38.0,30.09,North,354,0.0,0.0,100,0.00,,,0.00,weatherlink.com 1.10,2013-01-13 08:38:00,
2013-01-13 03:53:00,37.3,37.0,30.09,North,354,0.0,0.0,100,0.00,,,0.00,weatherlink.com 1.10,2013-01-13 08:53:00,
2013-01-13 04:08:00,37.1,37.0,30.09,North,354,0.0,0.0,100,0.00,,,0.00,weatherlink.com 1.10,2013-01-13 09:08:00,
2013-01-13 04:24:00,36.7,37.0,30.08,North,354,0.0,0.0,100,0.00,,,0.00,weatherlink.com 1.10,2013-01-13 09:24:00,
2013-01-13 04:39:00,36.4,36.0,30.07,North,354,0.0,0.0,99,0.00,,,0.00,weatherlink.com 1.10,2013-01-13 09:39:00,
2013-01-13 04:54:00,36.7,37.0,30.08,North,354,0.0,0.0,100,0.00,,,0.00,weatherlink.com 1.10,2013-01-13 09:54:00,
2013-01-13 05:09:00,37.0,37.0,30.08,North,354,0.0,0.0,100,0.00,,,0.00,weatherlink.com 1.10,2013-01-13 10:09:00,
2013-01-13 05:24:00,36.7,37.0,30.08,North,354,0.0,0.0,100,0.00,,,0.00,weatherlink.com 1.10,2013-01-13 10:24:00,
2013-01-13 05:39:00,36.3,36.0,30.05,North,354,0.0,0.0,100,0.00,,,0.00,weatherlink.com 1.10,2013-01-13 10:39:00,
2013-01-13 05:54:00,36.3,36.0,30.07,North,354,0.0,0.0,100,0.00,,,0.00,weatherlink.com 1.10,2013-01-13 10:54:00,
2013-01-13 06:09:00,36.5,37.0,30.08,North,354,0.0,0.0,100,0.01,,,0.01,weatherlink.com 1.10,2013-01-13 11:09:00,
2013-01-13 06:24:00,36.2,36.0,30.08,North,354,0.0,0.0,100,0.01,,,0.01,weatherlink.com 1.10,2013-01-13 11:24:00,
2013-01-13 06:39:00,36.3,36.0,30.08,North,354,0.0,0.0,100,0.01,,,0.01,weatherlink.com 1.10,2013-01-13 11:39:00,
2013-01-13 06:54:00,35.8,36.0,30.04,North,354,0.0,0.0,100,0.01,,,0.01,weatherlink.com 1.10,2013-01-13 11:54:00,
2013-01-13 07:09:00,36.3,36.0,30.07,North,354,0.0,0.0,100,0.00,,,0.01,weatherlink.com 1.10,2013-01-13 12:09:00,
2013-01-13 07:24:00,36.3,36.0,30.07,North,354,0.0,0.0,100,0.00,,,0.01,weatherlink.com 1.10,2013-01-13 12:24:00,
2013-01-13 07:39:00,36.6,37.0,30.07,North,354,0.0,0.0,100,0.00,,,0.01,weatherlink.com 1.10,2013-01-13 12:39:00,
2013-01-13 07:54:00,36.5,37.0,30.07,North,354,0.0,0.0,100,0.00,,,0.01,weatherlink.com 1.10,2013-01-13 12:54:00,
2013-01-13 08:09:00,36.5,37.0,30.07,North,354,0.0,0.0,100,0.00,,,0.01,weatherlink.com 1.10,2013-01-13 13:09:00,
2013-01-13 08:24:00,37.2,37.0,30.07,North,354,0.0,0.0,100,0.00,,,0.01,weatherlink.com 1.10,2013-01-13 13:24:00,
2013-01-13 08:39:00,38.6,39.0,30.08,North,354,0.0,0.0,100,0.00,,,0.01,weatherlink.com 1.10,2013-01-13 13:39:00,
2013-01-13 08:54:00,38.8,39.0,30.07,North,354,0.0,0.0,100,0.00,,,0.01,weatherlink.com 1.10,2013-01-13 13:54:00,
2013-01-13 09:09:00,39.1,39.0,30.07,WNW,283,0.0,1.0,100,0.00,,,0.01,weatherlink.com 1.10,2013-01-13 14:09:00,
2013-01-13 09:24:00,39.7,40.0,30.07,West,268,0.0,2.0,100,0.00,,,0.01,weatherlink.com 1.10,2013-01-13 14:24:00,
2013-01-13 09:39:00,40.2,40.0,30.06,SE,135,0.0,2.0,100,0.00,,,0.01,weatherlink.com 1.10,2013-01-13 14:39:00,
2013-01-13 09:54:00,40.4,40.0,30.06,SE,142,1.0,4.0,100,0.00,,,0.01,weatherlink.com 1.10,2013-01-13 14:54:00,
2013-01-13 10:09:00,40.6,41.0,30.05,WNW,291,1.0,4.0,100,0.00,,,0.01,weatherlink.com 1.10,2013-01-13 15:09:00,
2013-01-13 10:24:00,40.6,41.0,30.05,NNE,15,1.0,7.0,100,0.00,,,0.01,weatherlink.com 1.10,2013-01-13 15:24:00,
2013-01-13 10:39:00,40.9,41.0,30.05,NNE,20,0.0,6.0,100,0.00,,,0.01,weatherlink.com 1.10,2013-01-13 15:39:00,
2013-01-13 10:54:00,40.9,41.0,30.05,West,277,0.0,7.0,100,0.00,,,0.01,weatherlink.com 1.10,2013-01-13 15:54:00,
2013-01-13 11:09:00,41.3,41.0,30.03,WSW,242,0.0,6.0,100,0.00,,,0.01,weatherlink.com 1.10,2013-01-13 16:09:00,
2013-01-13 11:24:00,41.5,42.0,30.02,West,274,0.0,5.0,100,0.00,,,0.01,weatherlink.com 1.10,2013-01-13 16:24:00,
2013-01-13 11:39:00,42.0,42.0,30.01,NW,305,3.0,5.0,100,0.00,,,0.01,weatherlink.com 1.10,2013-01-13 16:39:00,
2013-01-13 11:54:00,42.2,42.0,30.02,WNW,288,1.0,4.0,100,0.00,,,0.01,weatherlink.com 1.10,2013-01-13 16:54:00,
2013-01-13 12:09:00,42.2,42.0,30.00,East,83,2.0,5.0,100,0.00,,,0.01,weatherlink.com 1.10,2013-01-13 17:09:00,
2013-01-13 12:24:00,42.4,42.0,29.99,WNW,301,0.0,5.0,100,0.00,,,0.01,weatherlink.com 1.10,2013-01-13 17:24:00,
2013-01-13 12:39:00,42.7,43.0,30.00,WNW,301,1.0,3.0,100,0.00,,,0.01,weatherlink.com 1.10,2013-01-13 17:39:00,
2013-01-13 12:54:00,42.7,43.0,29.99,WSW,251,1.0,2.0,100,0.00,,,0.01,weatherlink.com 1.10,2013-01-13 17:54:00,
2013-01-13 13:09:00,42.9,43.0,29.98,SE,145,0.0,2.0,100,0.00,,,0.01,weatherlink.com 1.10,2013-01-13 18:09:00,
2013-01-13 13:24:00,43.0,43.0,29.96,SE,143,1.0,4.0,100,0.00,,,0.01,weatherlink.com 1.10,2013-01-13 18:24:00,
2013-01-13 13:39:00,43.5,44.0,29.95,NE,53,1.0,4.0,100,0.00,,,0.01,weatherlink.com 1.10,2013-01-13 18:39:00,
2013-01-13 13:54:00,44.0,44.0,29.94,NNE,16,0.0,4.0,100,0.00,,,0.01,weatherlink.com 1.10,2013-01-13 18:54:00,
2013-01-13 14:13:00,44.4,44.0,29.94,West,281,0.0,5.0,100,0.00,,,0.01,weatherlink.com 1.10,2013-01-13 19:13:00,
2013-01-13 14:24:00,44.6,45.0,29.94,WNW,290,2.0,7.0,100,0.00,,,0.01,weatherlink.com 1.10,2013-01-13 19:24:00,
2013-01-13 14:39:00,44.7,45.0,29.93,North,352,1.0,2.0,100,0.00,,,0.01,weatherlink.com 1.10,2013-01-13 19:39:00,
2013-01-13 14:55:00,44.6,45.0,29.93,West,278,3.0,4.0,100,0.00,,,0.01,weatherlink.com 1.10,2013-01-13 19:55:00,
2013-01-13 15:10:00,44.8,45.0,29.92,NW,319,0.0,7.0,100,0.00,,,0.01,weatherlink.com 1.10,2013-01-13 20:10:00,
2013-01-13 15:25:00,44.7,45.0,29.93,West,259,0.0,5.0,100,0.00,,,0.01,weatherlink.com 1.10,2013-01-13 20:25:00,
2013-01-13 15:40:00,44.8,45.0,29.94,WNW,298,3.0,5.0,100,0.00,,,0.01,weatherlink.com 1.10,2013-01-13 20:40:00,
2013-01-13 15:55:00,44.7,45.0,29.94,NW,314,6.0,6.0,100,0.00,,,0.01,weatherlink.com 1.10,2013-01-13 20:55:00,
2013-01-13 16:10:00,44.6,45.0,29.94,West,281,2.0,3.0,100,0.00,,,0.01,weatherlink.com 1.10,2013-01-13 21:10:00,
2013-01-13 16:25:00,44.3,44.0,29.95,ENE,70,0.0,3.0,100,0.00,,,0.01,weatherlink.com 1.10,2013-01-13 21:25:00,
2013-01-13 16:40:00,44.4,44.0,29.95,WNW,285,0.0,6.0,100,0.00,,,0.01,weatherlink.com 1.10,2013-01-13 21:40:00,
2013-01-13 16:55:00,44.3,44.0,29.96,West,274,2.0,5.0,100,0.00,,,0.01,weatherlink.com 1.10,2013-01-13 21:55:00,
2013-01-13 17:10:00,44.3,44.0,29.96,NW,315,2.0,7.0,100,0.00,,,0.01,weatherlink.com 1.10,2013-01-13 22:10:00,
2013-01-13 17:25:00,44.1,44.0,29.96,SE,125,0.0,5.0,100,0.00,,,0.01,weatherlink.com 1.10,2013-01-13 22:25:00,
2013-01-13 17:40:00,44.3,44.0,29.96,South,178,1.0,4.0,100,0.00,,,0.01,weatherlink.com 1.10,2013-01-13 22:40:00,
2013-01-13 17:55:00,44.3,44.0,29.95,North,350,1.0,6.0,99,0.00,,,0.01,weatherlink.com 1.10,2013-01-13 22:55:00,
2013-01-13 18:10:00,44.6,45.0,29.96,WNW,295,0.0,4.0,100,0.00,,,0.01,weatherlink.com 1.10,2013-01-13 23:10:00,
2013-01-13 18:25:00,44.4,44.0,29.97,SSE,150,0.0,3.0,99,0.00,,,0.01,weatherlink.com 1.10,2013-01-13 23:25:00,
2013-01-13 18:40:00,44.5,45.0,29.97,South,179,1.0,3.0,100,0.00,,,0.01,weatherlink.com 1.10,2013-01-13 23:40:00,
2013-01-13 18:55:00,44.5,45.0,29.99,ENE,72,8.0,8.0,100,0.00,,,0.01,weatherlink.com 1.10,2013-01-13 23:55:00,
2013-01-13 19:10:00,44.4,44.0,29.97,NW,313,1.0,4.0,99,0.00,,,0.01,weatherlink.com 1.10,2013-01-14 00:10:00,
2013-01-13 19:25:00,44.1,44.0,29.99,SE,128,0.0,5.0,99,0.00,,,0.01,weatherlink.com 1.10,2013-01-14 00:25:00,
2013-01-13 19:40:00,44.1,44.0,29.98,SE,129,1.0,4.0,100,0.00,,,0.01,weatherlink.com 1.10,2013-01-14 00:40:00,
2013-01-13 19:55:00,43.9,44.0,29.98,NE,51,1.0,3.0,99,0.00,,,0.01,weatherlink.com 1.10,2013-01-14 00:55:00,
2013-01-13 20:10:00,43.9,44.0,29.98,NW,310,1.0,3.0,100,0.00,,,0.01,weatherlink.com 1.10,2013-01-14 01:10:00,
2013-01-13 20:25:00,43.7,44.0,29.97,NNW,343,0.0,2.0,100,0.00,,,0.01,weatherlink.com 1.10,2013-01-14 01:25:00,
2013-01-13 20:40:00,44.0,44.0,29.95,WNW,302,0.0,4.0,100,0.00,,,0.01,weatherlink.com 1.10,2013-01-14 01:40:00,
2013-01-13 20:55:00,44.0,44.0,29.95,WSW,253,3.0,3.0,100,0.00,,,0.01,weatherlink.com 1.10,2013-01-14 01:55:00,
2013-01-13 21:10:00,44.2,44.0,29.96,West,270,0.0,5.0,100,0.00,,,0.01,weatherlink.com 1.10,2013-01-14 02:10:00,
2013-01-13 21:26:00,44.1,44.0,29.95,WNW,286,1.0,8.0,100,0.00,,,0.01,weatherlink.com 1.10,2013-01-14 02:26:00,
2013-01-13 21:40:00,44.1,44.0,29.95,ESE,106,2.0,6.0,100,0.00,,,0.01,weatherlink.com 1.10,2013-01-14 02:40:00,
2013-01-13 21:55:00,44.2,44.0,29.95,SE,139,0.0,3.0,100,0.00,,,0.01,weatherlink.com 1.10,2013-01-14 02:55:00,
2013-01-13 22:10:00,44.2,44.0,29.95,NNW,344,0.0,5.0,100,0.00,,,0.01,weatherlink.com 1.10,2013-01-14 03:10:00,
2013-01-13 22:25:00,44.3,44.0,29.95,SE,134,0.0,2.0,100,0.00,,,0.01,weatherlink.com 1.10,2013-01-14 03:25:00,
2013-01-13 22:40:00,44.3,44.0,29.95,West,280,1.0,4.0,100,0.00,,,0.01,weatherlink.com 1.10,2013-01-14 03:40:00,
2013-01-13 22:55:00,44.5,45.0,29.95,NNW,345,0.0,2.0,100,0.00,,,0.01,weatherlink.com 1.10,2013-01-14 03:55:00,
2013-01-13 23:10:00,44.3,44.0,29.95,NNE,27,0.0,2.0,100,0.00,,,0.01,weatherlink.com 1.10,2013-01-14 04:10:00,
2013-01-13 23:25:00,44.4,44.0,29.94,NNW,344,1.0,3.0,100,0.00,,,0.01,weatherlink.com 1.10,2013-01-14 04:25:00,
2013-01-13 23:40:00,44.4,44.0,29.94,WNW,295,0.0,4.0,100,0.00,,,0.01,weatherlink.com 1.10,2013-01-14 04:40:00,
2013-01-13 23:55:00,44.2,44.0,29.94,NNE,18,2.0,2.0,100,0.00,,,0.01,weatherlink.com 1.10,2013-01-14 04:55:00,